DLH55K EDDF-LFML

Flight info

Callsign DLH55K
Flight time 1h 20m
Altitude 33000
Route ANEKI2L/18 ANEKI Y163 HERBI Y164 MOPAN DCT LUTIX/N0439F350 DCT BENOT DCT NEMOS DCT GEVEA DCT INCUS DCT BALSI
Aircraft A320/M-SDE3FGHIRWY/LB1

Departure

Time 2026-05-04 10:00
Airport Frankfurt Main Airport (EDDF)

Arrival

Time 2026-05-04 11:20
Airport Marseille Provence Airport (LFML)
Time Latitude Longitude Altitude Speed Heading
2026-05-04 09:32 50.04403 8.56222 356 ft 0 kts 159°
2026-05-04 09:51 50.04477 8.56217 365 ft 0 kts 250°
2026-05-04 09:51 50.04469 8.56184 362 ft 4 kts 250°
2026-05-04 09:51 50.04460 8.56145 358 ft 4 kts 250°
2026-05-04 09:51 50.04453 8.56118 359 ft 0 kts 249°
2026-05-04 09:54 50.04439 8.56062 361 ft 8 kts 247°
2026-05-04 09:54 50.04388 8.56031 356 ft 12 kts 168°
2026-05-04 09:54 50.04296 8.56069 355 ft 15 kts 187°
2026-05-04 09:55 50.04238 8.55935 357 ft 16 kts 252°
2026-05-04 09:55 50.04189 8.55726 357 ft 25 kts 249°
2026-05-04 09:55 50.04173 8.55661 352 ft 25 kts 249°
2026-05-04 09:55 50.04136 8.55508 354 ft 26 kts 250°
2026-05-04 09:56 50.04128 8.55472 351 ft 26 kts 250°
2026-05-04 09:56 50.04066 8.55210 357 ft 26 kts 249°
2026-05-04 09:56 50.04002 8.54947 357 ft 27 kts 250°
2026-05-04 09:56 50.03936 8.54668 356 ft 28 kts 249°
2026-05-04 09:57 50.03869 8.54395 349 ft 23 kts 246°
2026-05-04 09:57 50.03789 8.54178 351 ft 23 kts 244°
2026-05-04 09:57 50.03732 8.53939 349 ft 25 kts 250°
2026-05-04 09:57 50.03671 8.53684 348 ft 26 kts 249°
2026-05-04 09:58 50.03604 8.53420 337 ft 27 kts 250°
2026-05-04 09:58 50.03539 8.53145 337 ft 28 kts 249°
2026-05-04 09:58 50.03470 8.52868 332 ft 24 kts 248°
2026-05-04 10:00 49.98945 8.52750 1790 ft 163 kts 178°
2026-05-04 10:00 49.97774 8.52828 2311 ft 174 kts 179°
2026-05-04 10:02 49.87925 8.53474 6023 ft 234 kts 179°
2026-05-04 10:04 49.76111 8.53890 10951 ft 269 kts 186°
2026-05-04 10:04 49.74165 8.53626 11174 ft 292 kts 186°
2026-05-04 10:04 49.72088 8.53338 11358 ft 315 kts 186°
2026-05-04 10:04 49.69860 8.53035 11828 ft 326 kts 186°
2026-05-04 10:05 49.67582 8.52736 12508 ft 331 kts 186°
2026-05-04 10:05 49.65281 8.52436 13232 ft 334 kts 186°
2026-05-04 10:05 49.62954 8.52131 13923 ft 337 kts 186°
2026-05-04 10:05 49.60602 8.51822 14543 ft 340 kts 186°
2026-05-04 10:06 49.58233 8.51514 15179 ft 343 kts 186°
2026-05-04 10:06 49.55845 8.51202 15800 ft 346 kts 186°
2026-05-04 10:06 49.53473 8.50890 16409 ft 348 kts 186°
2026-05-04 10:08 49.38657 8.48939 19909 ft 362 kts 187°
2026-05-04 10:08 49.36140 8.48610 20449 ft 364 kts 187°
2026-05-04 10:08 49.33603 8.48283 20979 ft 367 kts 187°
2026-05-04 10:08 49.31085 8.47958 21499 ft 369 kts 187°
2026-05-04 10:09 49.28514 8.47624 22021 ft 372 kts 187°
2026-05-04 10:09 49.25924 8.47288 22539 ft 375 kts 187°
2026-05-04 10:09 49.23316 8.46950 23051 ft 377 kts 187°
2026-05-04 10:09 49.20689 8.46612 23535 ft 380 kts 186°
2026-05-04 10:10 49.18047 8.46271 23952 ft 382 kts 187°
2026-05-04 10:10 49.15393 8.45928 24361 ft 384 kts 187°
2026-05-04 10:10 49.12732 8.45583 24765 ft 386 kts 187°
2026-05-04 10:10 49.10086 8.45237 25154 ft 388 kts 187°
2026-05-04 10:11 49.07391 8.44883 25539 ft 389 kts 187°
2026-05-04 10:11 49.04724 8.44185 25912 ft 389 kts 194°
2026-05-04 10:11 49.02077 8.43259 26282 ft 391 kts 194°
2026-05-04 10:11 48.99419 8.42333 26652 ft 393 kts 194°
2026-05-04 10:12 48.96746 8.41404 27012 ft 395 kts 194°
2026-05-04 10:12 48.94065 8.40468 27373 ft 396 kts 194°
2026-05-04 10:12 48.91410 8.39544 27728 ft 398 kts 194°
2026-05-04 10:12 48.88707 8.38605 28083 ft 399 kts 194°
2026-05-04 10:13 48.85997 8.37663 28428 ft 401 kts 194°
2026-05-04 10:13 48.83278 8.36722 28769 ft 402 kts 194°
2026-05-04 10:13 48.80542 8.35776 29110 ft 404 kts 194°
2026-05-04 10:13 48.77800 8.34825 29433 ft 405 kts 194°
2026-05-04 10:14 48.75045 8.33841 29656 ft 409 kts 194°
2026-05-04 10:14 48.72271 8.32824 29915 ft 411 kts 195°
2026-05-04 10:16 48.52655 8.25657 31785 ft 415 kts 195°
2026-05-04 10:16 48.49857 8.24641 32126 ft 413 kts 196°
2026-05-04 10:16 48.47069 8.23628 32464 ft 412 kts 196°
2026-05-04 10:16 48.44327 8.22629 32793 ft 410 kts 196°
2026-05-04 10:17 48.41572 8.21552 33120 ft 407 kts 202°
2026-05-04 10:17 48.38981 8.19879 33403 ft 405 kts 207°
2026-05-04 10:19 48.21236 8.07598 35025 ft 399 kts 207°
2026-05-04 10:19 48.18719 8.05866 35030 ft 397 kts 207°
2026-05-04 10:19 48.13717 8.02423 35030 ft 395 kts 207°
2026-05-04 10:20 48.08724 7.99001 35032 ft 395 kts 207°
2026-05-04 10:20 48.03729 7.95590 35031 ft 395 kts 207°
2026-05-04 10:21 47.98771 7.92205 35032 ft 394 kts 207°
2026-05-04 10:21 47.93780 7.88798 35022 ft 394 kts 207°
2026-05-04 10:22 47.86289 7.83714 35027 ft 394 kts 207°
2026-05-04 10:23 47.81317 7.80347 35026 ft 394 kts 207°
2026-05-04 10:25 47.61384 7.66896 35020 ft 394 kts 207°
2026-05-04 10:25 47.56424 7.63576 35022 ft 394 kts 207°
2026-05-04 10:26 47.51834 7.59294 35014 ft 391 kts 219°
2026-05-04 10:26 47.47536 7.54365 35013 ft 391 kts 219°
2026-05-04 10:27 47.43237 7.49421 35033 ft 392 kts 218°
2026-05-04 10:27 47.38933 7.44504 35034 ft 391 kts 218°
2026-05-04 10:28 47.34656 7.39636 35019 ft 391 kts 218°
2026-05-04 10:28 47.30346 7.34727 35012 ft 392 kts 218°
2026-05-04 10:29 47.26020 7.29819 35010 ft 393 kts 218°
2026-05-04 10:29 47.21684 7.24909 35010 ft 394 kts 218°
2026-05-04 10:30 47.17369 7.20026 35014 ft 394 kts 218°
2026-05-04 10:30 47.13017 7.15112 35011 ft 395 kts 218°
2026-05-04 10:31 47.08657 7.10212 35026 ft 395 kts 218°
2026-05-04 10:32 46.91753 6.96809 35014 ft 397 kts 208°
2026-05-04 10:33 46.86794 6.93255 35041 ft 396 kts 207°
2026-05-04 10:33 46.81853 6.89709 35042 ft 395 kts 207°
2026-05-04 10:34 46.76955 6.86188 35044 ft 395 kts 207°
2026-05-04 10:34 46.72027 6.82662 35039 ft 394 kts 207°
2026-05-04 10:35 46.67096 6.79157 35039 ft 394 kts 207°
2026-05-04 10:35 46.62167 6.75647 35039 ft 394 kts 207°
2026-05-04 10:36 46.57239 6.72146 35041 ft 394 kts 207°
2026-05-04 10:36 46.52349 6.68665 35043 ft 394 kts 207°
2026-05-04 10:37 46.47420 6.65178 35042 ft 394 kts 207°
2026-05-04 10:37 46.42486 6.61697 35046 ft 395 kts 207°
2026-05-04 10:39 46.25245 6.49567 35064 ft 394 kts 207°
2026-05-04 10:40 46.20306 6.46109 35069 ft 395 kts 207°
2026-05-04 10:40 46.15365 6.42652 35062 ft 395 kts 207°
2026-05-04 10:41 46.10423 6.39200 35057 ft 395 kts 207°
2026-05-04 10:41 46.05510 6.35778 35059 ft 395 kts 207°
2026-05-04 10:42 46.00566 6.32344 35094 ft 394 kts 207°
2026-05-04 10:42 45.95632 6.28927 35080 ft 393 kts 207°
2026-05-04 10:43 45.90705 6.25515 35078 ft 393 kts 207°
2026-05-04 10:45 45.70979 6.11945 35066 ft 394 kts 207°
2026-05-04 10:45 45.66071 6.08573 35071 ft 394 kts 207°
2026-05-04 10:46 45.61128 6.05190 35072 ft 394 kts 207°
2026-05-04 10:46 45.56179 6.01816 35075 ft 394 kts 207°
2026-05-04 10:47 45.51231 5.98455 35072 ft 394 kts 207°
2026-05-04 10:47 45.46624 5.94408 35065 ft 392 kts 221°
2026-05-04 10:47 45.44672 5.91706 34847 ft 391 kts 225°
2026-05-04 10:49 45.31539 5.72870 34022 ft 381 kts 224°
2026-05-04 10:49 45.29670 5.70203 33548 ft 380 kts 224°
2026-05-04 10:50 45.27808 5.67546 32955 ft 379 kts 224°
2026-05-04 10:51 45.14856 5.49198 28730 ft 375 kts 224°
2026-05-04 10:52 45.13014 5.46594 28176 ft 372 kts 224°
2026-05-04 10:52 45.11210 5.44041 28036 ft 361 kts 224°
2026-05-04 10:52 45.09444 5.41546 28056 ft 358 kts 224°
2026-05-04 10:54 44.97255 5.24413 25845 ft 348 kts 223°
2026-05-04 10:54 44.95541 5.22015 25429 ft 346 kts 223°
2026-05-04 10:56 44.83795 5.05627 22480 ft 335 kts 224°
2026-05-04 10:56 44.82143 5.03331 22026 ft 332 kts 223°
2026-05-04 10:56 44.80504 5.01053 21584 ft 330 kts 223°
2026-05-04 10:57 44.78872 4.98790 21170 ft 327 kts 223°
2026-05-04 10:57 44.77259 4.96555 21058 ft 325 kts 223°
2026-05-04 10:57 44.75639 4.94318 21084 ft 327 kts 223°
2026-05-04 10:57 44.74017 4.92080 21076 ft 327 kts 223°
2026-05-04 10:58 44.72317 4.90039 21074 ft 326 kts 214°
2026-05-04 10:58 44.70347 4.88471 21074 ft 326 kts 207°
2026-05-04 10:58 44.68320 4.87044 21068 ft 326 kts 207°
2026-05-04 10:58 44.66282 4.85606 20771 ft 329 kts 207°
2026-05-04 10:59 44.64239 4.84160 20376 ft 329 kts 207°
2026-05-04 10:59 44.62191 4.82710 19975 ft 330 kts 207°
2026-05-04 10:59 44.60137 4.81257 19581 ft 331 kts 207°
2026-05-04 10:59 44.58091 4.79811 19195 ft 328 kts 207°
2026-05-04 11:00 44.56098 4.78451 19025 ft 318 kts 202°
2026-05-04 11:01 44.41008 4.74565 15896 ft 315 kts 190°
2026-05-04 11:02 44.38849 4.74051 15449 ft 314 kts 190°
2026-05-04 11:02 44.36723 4.73541 15017 ft 314 kts 190°
2026-05-04 11:05 44.09541 4.69010 9663 ft 263 kts 160°
2026-05-04 11:06 44.07872 4.69959 9301 ft 262 kts 161°
2026-05-04 11:06 44.06185 4.70910 8938 ft 262 kts 161°
2026-05-04 11:06 44.04495 4.71859 8577 ft 262 kts 161°
2026-05-04 11:06 44.02809 4.72806 8269 ft 259 kts 161°
2026-05-04 11:08 43.91596 4.79098 7365 ft 239 kts 161°
2026-05-04 11:10 43.80849 4.85115 6982 ft 239 kts 161°
2026-05-04 11:12 43.70264 4.91057 4999 ft 216 kts 160°
2026-05-04 11:12 43.68900 4.91833 4830 ft 209 kts 159°
2026-05-04 11:12 43.67579 4.92586 4625 ft 202 kts 159°
2026-05-04 11:12 43.66302 4.93313 4420 ft 195 kts 158°
2026-05-04 11:13 43.65072 4.94014 4246 ft 187 kts 158°
2026-05-04 11:13 43.63912 4.94675 4127 ft 180 kts 158°
2026-05-04 11:13 43.62760 4.95331 4044 ft 178 kts 157°
2026-05-04 11:13 43.61645 4.96064 4012 ft 178 kts 143°
2026-05-04 11:14 43.60713 4.97194 4011 ft 179 kts 137°
2026-05-04 11:14 43.59834 4.98404 4003 ft 179 kts 136°
2026-05-04 11:14 43.58965 4.99635 3939 ft 178 kts 135°
2026-05-04 11:16 43.53605 5.07311 2525 ft 141 kts 132°
2026-05-04 11:16 43.52929 5.08279 2346 ft 140 kts 133°
2026-05-04 11:16 43.52275 5.09215 2142 ft 129 kts 134°
2026-05-04 11:17 43.51666 5.10086 2000 ft 124 kts 134°
2026-05-04 11:17 43.51083 5.10921 1836 ft 120 kts 133°
2026-05-04 11:19 43.47010 5.16737 713 ft 126 kts 133°
2026-05-04 11:19 43.46409 5.17594 549 ft 123 kts 132°
2026-05-04 11:19 43.45830 5.18420 387 ft 117 kts 132°
2026-05-04 11:19 43.45271 5.19218 231 ft 120 kts 133°
2026-05-04 11:20 43.44684 5.20055 66 ft 121 kts 135°
2026-05-04 11:20 43.44157 5.20802 19 ft 87 kts 133°
2026-05-04 11:20 43.43854 5.21235 31 ft 41 kts 135°
2026-05-04 11:20 43.43710 5.21444 37 ft 22 kts 133°
2026-05-04 11:22 43.43442 5.22265 49 ft 11 kts 331°
2026-05-04 11:22 43.43510 5.22211 50 ft 12 kts 327°
2026-05-04 11:23 43.43580 5.22152 48 ft 12 kts 333°
2026-05-04 11:23 43.43655 5.22097 45 ft 13 kts 331°
2026-05-04 11:24 43.43930 5.22238 43 ft 0 kts 63°